Time,TemperatureF,DewpointF,PressureIn,WindDirection,WindDirectionDegrees,WindSpeedMPH,WindSpeedGustMPH,Humidity,HourlyPrecipIn,Conditions,Clouds,dailyrainin,SolarRadiationWatts/m^2,SoftwareType,DateUTC
2013-08-23 02:11:00,50.8,46.8,30.13,NE,40,1.2,1.2,86,0.00,CLR,,0.00,0.0,WeatherDisplay:10.37,2013-08-23 00:11:00,
2013-08-23 02:12:00,50.7,46.4,30.13,NE,40,1.2,0.0,85,0.00,CLR,,0.00,0.0,WeatherDisplay:10.37,2013-08-23 00:12:00,
2013-08-23 02:13:00,50.7,46.4,30.13,NE,40,1.2,1.2,85,0.00,CLR,,0.00,0.0,WeatherDisplay:10.37,2013-08-23 00:13:00,
2013-08-23 02:16:00,50.8,46.5,30.13,NE,40,2.3,2.3,85,0.00,CLR,,0.00,0.0,WeatherDisplay:10.37,2013-08-23 00:16:00,
2013-08-23 02:17:00,50.8,46.5,30.13,NE,40,2.3,2.3,85,0.00,CLR,,0.00,0.0,WeatherDisplay:10.37,2013-08-23 00:17:00,
2013-08-23 02:23:00,50.9,46.6,30.13,NE,40,2.3,2.3,85,0.00,CLR,,0.00,0.0,WeatherDisplay:10.37,2013-08-23 00:23:00,
2013-08-23 02:28:00,50.9,46.6,30.13,NE,40,1.2,0.0,85,0.00,CLR,,0.00,0.0,WeatherDisplay:10.37,2013-08-23 00:28:00,
2013-08-23 02:33:00,50.9,46.6,30.13,NE,40,1.2,1.2,85,0.00,CLR,,0.00,0.0,WeatherDisplay:10.37,2013-08-23 00:33:00,
2013-08-23 02:38:00,51.1,46.7,30.13,NE,40,1.2,1.2,85,0.00,CLR,,0.00,0.0,WeatherDisplay:10.37,2013-08-23 00:38:00,
2013-08-23 02:43:00,51.1,46.7,30.13,NE,40,2.0,2.0,85,0.00,CLR,,0.00,0.0,WeatherDisplay:10.37,2013-08-23 00:43:00,
2013-08-23 02:48:00,51.1,47.1,30.13,NE,40,1.2,1.2,86,0.00,CLR,,0.00,0.0,WeatherDisplay:10.37,2013-08-23 00:48:00,
2013-08-23 02:53:00,51.1,46.7,30.13,NE,40,1.2,0.0,85,0.00,CLR,,0.00,0.0,WeatherDisplay:10.37,2013-08-23 00:53:00,
2013-08-23 02:58:00,51.0,46.6,30.13,NE,40,0.0,0.0,85,0.00,CLR,,0.00,0.0,WeatherDisplay:10.37,2013-08-23 00:58:00,
2013-08-23 03:03:00,50.5,46.2,30.12,NE,40,0.0,0.0,85,0.00,CLR,,0.00,0.0,WeatherDisplay:10.37,2013-08-23 01:03:00,
2013-08-23 03:08:00,50.2,45.9,30.12,NE,40,0.0,0.0,85,0.00,CLR,,0.00,0.0,WeatherDisplay:10.37,2013-08-23 01:08:00,
2013-08-23 03:13:00,49.8,45.5,30.12,NE,40,0.0,0.0,85,0.00,CLR,,0.00,0.0,WeatherDisplay:10.37,2013-08-23 01:13:00,
2013-08-23 03:18:00,49.6,45.3,30.12,NE,40,0.0,0.0,85,0.00,CLR,,0.00,0.0,WeatherDisplay:10.37,2013-08-23 01:18:00,
2013-08-23 03:23:00,49.5,44.9,30.12,NE,40,0.0,0.0,84,0.00,CLR,,0.00,0.0,WeatherDisplay:10.37,2013-08-23 01:23:00,
2013-08-23 03:28:00,49.4,44.8,30.12,NE,40,0.0,0.0,84,0.00,CLR,,0.00,0.0,WeatherDisplay:10.37,2013-08-23 01:28:00,
2013-08-23 03:33:00,49.4,44.8,30.12,NE,40,0.0,0.0,84,0.00,CLR,,0.00,0.0,WeatherDisplay:10.37,2013-08-23 01:33:00,
2013-08-23 03:38:00,49.5,44.9,30.12,NE,40,0.0,0.0,84,0.00,CLR,,0.00,0.0,WeatherDisplay:10.37,2013-08-23 01:38:00,
2013-08-23 03:43:00,49.4,44.8,30.12,NE,40,0.0,0.0,84,0.00,CLR,,0.00,0.0,WeatherDisplay:10.37,2013-08-23 01:43:00,
2013-08-23 03:48:00,49.3,45.0,30.12,NE,40,0.0,0.0,85,0.00,CLR,,0.00,0.0,WeatherDisplay:10.37,2013-08-23 01:48:00,
2013-08-23 03:53:00,49.2,44.9,30.12,NE,40,0.0,0.0,85,0.00,CLR,,0.00,0.0,WeatherDisplay:10.37,2013-08-23 01:53:00,
2013-08-23 03:58:00,49.1,44.8,30.12,NE,40,1.0,0.0,85,0.00,CLR,,0.00,0.0,WeatherDisplay:10.37,2013-08-23 01:58:00,
2013-08-23 04:03:00,49.1,44.8,30.12,NE,40,1.2,1.2,85,0.00,CLR,,0.00,0.0,WeatherDisplay:10.37,2013-08-23 02:03:00,
2013-08-23 04:08:00,49.1,44.5,30.12,NE,40,2.0,2.0,84,0.00,CLR,,0.00,0.0,WeatherDisplay:10.37,2013-08-23 02:08:00,
2013-08-23 04:13:00,49.3,44.7,30.12,NE,40,0.0,0.0,84,0.00,CLR,,0.00,0.0,WeatherDisplay:10.37,2013-08-23 02:13:00,
2013-08-23 04:18:00,49.1,44.5,30.12,NE,40,0.0,0.0,84,0.00,CLR,,0.00,0.0,WeatherDisplay:10.37,2013-08-23 02:18:00,
2013-08-23 04:23:00,48.8,44.5,30.12,NE,40,0.0,0.0,85,0.00,CLR,,0.00,0.0,WeatherDisplay:10.37,2013-08-23 02:23:00,
2013-08-23 04:28:00,48.8,44.2,30.12,NE,40,0.0,0.0,84,0.00,CLR,,0.00,0.0,WeatherDisplay:10.37,2013-08-23 02:28:00,
2013-08-23 04:33:00,49.1,44.5,30.12,NE,40,0.0,0.0,84,0.00,CLR,,0.00,0.0,WeatherDisplay:10.37,2013-08-23 02:33:00,
2013-08-23 04:38:00,49.1,44.5,30.12,NE,40,0.0,0.0,84,0.00,CLR,,0.00,0.0,WeatherDisplay:10.37,2013-08-23 02:38:00,
2013-08-23 04:43:00,48.7,44.1,30.12,NE,40,0.0,0.0,84,0.00,CLR,,0.00,0.0,WeatherDisplay:10.37,2013-08-23 02:43:00,
2013-08-23 04:48:00,48.6,44.0,30.12,NE,40,0.0,0.0,84,0.00,CLR,,0.00,0.0,WeatherDisplay:10.37,2013-08-23 02:48:00,
2013-08-23 04:53:00,48.4,43.8,30.12,NE,40,0.0,0.0,84,0.00,CLR,,0.00,0.0,WeatherDisplay:10.37,2013-08-23 02:53:00,
2013-08-23 04:58:00,48.4,43.8,30.12,NE,40,0.0,0.0,84,0.00,CLR,,0.00,0.0,WeatherDisplay:10.37,2013-08-23 02:58:00,
2013-08-23 05:03:00,48.1,43.5,30.12,NE,40,0.0,0.0,84,0.00,CLR,,0.00,0.0,WeatherDisplay:10.37,2013-08-23 03:03:00,
2013-08-23 05:08:00,48.0,43.4,30.12,NE,40,0.0,0.0,84,0.00,CLR,,0.00,0.0,WeatherDisplay:10.37,2013-08-23 03:08:00,
2013-08-23 05:13:00,48.0,43.4,30.12,NE,40,0.0,0.0,84,0.00,CLR,,0.00,0.0,WeatherDisplay:10.37,2013-08-23 03:13:00,
2013-08-23 05:18:00,48.2,43.6,30.12,NE,40,0.0,0.0,84,0.00,CLR,,0.00,0.0,WeatherDisplay:10.37,2013-08-23 03:18:00,
2013-08-23 05:23:00,48.2,43.6,30.12,NE,40,0.0,0.0,84,0.00,CLR,,0.00,0.0,WeatherDisplay:10.37,2013-08-23 03:23:00,
2013-08-23 05:28:00,48.3,43.7,30.12,NE,40,0.0,0.0,84,0.00,CLR,,0.00,0.0,WeatherDisplay:10.37,2013-08-23 03:28:00,
2013-08-23 05:33:00,48.2,43.6,30.12,NE,40,0.0,0.0,84,0.00,CLR,,0.00,0.0,WeatherDisplay:10.37,2013-08-23 03:33:00,
2013-08-23 05:38:00,48.1,43.5,30.12,NE,40,0.0,0.0,84,0.00,CLR,,0.00,0.0,WeatherDisplay:10.37,2013-08-23 03:38:00,
2013-08-23 05:43:00,48.2,43.6,30.12,NE,40,0.0,0.0,84,0.00,CLR,,0.00,0.0,WeatherDisplay:10.37,2013-08-23 03:43:00,
2013-08-23 05:48:00,48.2,43.6,30.12,NE,40,0.0,0.0,84,0.00,CLR,,0.00,0.0,WeatherDisplay:10.37,2013-08-23 03:48:00,
2013-08-23 05:53:00,48.3,43.7,30.12,NE,40,0.0,0.0,84,0.00,CLR,,0.00,0.0,WeatherDisplay:10.37,2013-08-23 03:53:00,
2013-08-23 05:58:00,48.3,43.7,30.12,NE,40,0.0,0.0,84,0.00,CLR,,0.00,0.0,WeatherDisplay:10.37,2013-08-23 03:58:00,
2013-08-23 06:01:00,48.3,43.7,30.12,NE,40,0.0,0.0,84,0.00,OVC,,0.00,0.0,WeatherDisplay:10.37,2013-08-23 04:01:00,
2013-08-23 06:02:00,48.2,43.6,30.12,NE,40,0.0,0.0,84,0.00,OVC,,0.00,0.0,WeatherDisplay:10.37,2013-08-23 04:02:00,
2013-08-23 06:04:00,48.2,43.6,30.12,NE,40,0.0,0.0,84,0.00,OVC,,0.00,0.0,WeatherDisplay:10.37,2013-08-23 04:04:00,
2013-08-23 06:05:00,48.2,43.6,30.12,NE,40,0.0,0.0,84,0.00,OVC,,0.00,0.0,WeatherDisplay:10.37,2013-08-23 04:05:00,
2013-08-23 06:10:00,48.5,43.9,30.12,NE,40,1.2,1.2,84,0.00,OVC,,0.00,5.0,WeatherDisplay:10.37,2013-08-23 04:10:00,
2013-08-23 06:14:00,48.7,44.1,30.12,NE,40,0.0,0.0,84,0.00,OVC,,0.00,9.0,WeatherDisplay:10.37,2013-08-23 04:14:00,
2013-08-23 06:19:00,48.5,43.9,30.12,NE,40,0.0,0.0,84,0.00,OVC,,0.00,12.0,WeatherDisplay:10.37,2013-08-23 04:19:00,
2013-08-23 06:24:00,48.5,43.9,30.12,NE,40,0.0,0.0,84,0.00,OVC,,0.00,16.0,WeatherDisplay:10.37,2013-08-23 04:24:00,
2013-08-23 06:29:00,48.6,44.0,30.12,NE,40,1.2,1.2,84,0.00,OVC,,0.00,21.0,WeatherDisplay:10.37,2013-08-23 04:29:00,
2013-08-23 06:34:00,49.0,44.1,30.12,NE,40,0.0,0.0,83,0.00,OVC,,0.00,26.0,WeatherDisplay:10.37,2013-08-23 04:34:00,
2013-08-23 06:39:00,49.1,44.5,30.12,NE,40,0.0,0.0,84,0.00,OVC,,0.00,30.0,WeatherDisplay:10.37,2013-08-23 04:39:00,
2013-08-23 06:44:00,49.2,44.6,30.12,NE,40,0.0,0.0,84,0.00,OVC,,0.00,37.0,WeatherDisplay:10.37,2013-08-23 04:44:00,
2013-08-23 06:49:00,49.4,44.8,30.12,NE,40,0.0,0.0,84,0.00,BKN,,0.00,40.0,WeatherDisplay:10.37,2013-08-23 04:49:00,
2013-08-23 06:54:00,49.7,44.7,30.12,NE,40,0.0,0.0,83,0.00,OVC,,0.00,42.0,WeatherDisplay:10.37,2013-08-23 04:54:00,
2013-08-23 06:59:00,50.0,45.4,30.12,NE,40,0.0,0.0,84,0.00,OVC,,0.00,46.0,WeatherDisplay:10.37,2013-08-23 04:59:00,
2013-08-23 07:04:00,50.4,45.4,30.12,NE,40,0.0,0.0,83,0.00,OVC,,0.00,51.0,WeatherDisplay:10.37,2013-08-23 05:04:00,
2013-08-23 07:09:00,50.6,45.9,30.12,NE,40,0.0,0.0,84,0.00,OVC,,0.00,60.0,WeatherDisplay:10.37,2013-08-23 05:09:00,
2013-08-23 07:14:00,50.9,46.2,30.12,NE,40,0.0,0.0,84,0.00,BKN,,0.00,79.0,WeatherDisplay:10.37,2013-08-23 05:14:00,
2013-08-23 07:19:00,51.3,46.6,30.12,NE,40,0.0,0.0,84,0.00,BKN,,0.00,83.0,WeatherDisplay:10.37,2013-08-23 05:19:00,
2013-08-23 07:24:00,51.7,46.7,30.12,NE,40,1.0,1.0,83,0.00,OVC,,0.00,81.0,WeatherDisplay:10.37,2013-08-23 05:24:00,
2013-08-23 07:29:00,52.0,47.0,30.12,NE,40,0.0,0.0,83,0.00,BKN,,0.00,88.0,WeatherDisplay:10.37,2013-08-23 05:29:00,
2013-08-23 07:34:00,52.4,47.4,30.12,NE,40,0.0,0.0,83,0.00,BKN,,0.00,98.0,WeatherDisplay:10.37,2013-08-23 05:34:00,
2013-08-23 07:39:00,52.4,47.4,30.12,NE,40,0.0,0.0,83,0.00,BKN,,0.00,118.0,WeatherDisplay:10.37,2013-08-23 05:39:00,
2013-08-23 07:44:00,53.1,48.4,30.12,NE,40,0.0,0.0,84,0.00,BKN,,0.00,134.0,WeatherDisplay:10.37,2013-08-23 05:44:00,
2013-08-23 07:49:00,53.8,49.1,30.12,NE,40,0.0,0.0,84,0.00,BKN,,0.00,135.0,WeatherDisplay:10.37,2013-08-23 05:49:00,
2013-08-23 07:54:00,53.8,49.7,30.12,NE,40,0.0,0.0,86,0.00,BKN,,0.00,153.0,WeatherDisplay:10.37,2013-08-23 05:54:00,
2013-08-23 07:59:00,54.3,50.2,30.12,NE,40,0.0,0.0,86,0.00,BKN,,0.00,153.0,WeatherDisplay:10.37,2013-08-23 05:59:00,
2013-08-23 08:05:00,54.5,50.4,30.12,NE,40,0.0,0.0,86,0.00,BKN,,0.00,174.0,WeatherDisplay:10.37,2013-08-23 06:05:00,
2013-08-23 08:09:00,55.0,50.9,30.12,NE,40,0.0,0.0,86,0.00,SCT,,0.00,199.0,WeatherDisplay:10.37,2013-08-23 06:09:00,
2013-08-23 08:14:00,55.6,51.5,30.12,NE,40,0.0,0.0,86,0.00,BKN,,0.00,167.0,WeatherDisplay:10.37,2013-08-23 06:14:00,
2013-08-23 08:19:00,56.2,52.1,30.13,NE,40,0.0,0.0,86,0.00,BKN,,0.00,200.0,WeatherDisplay:10.37,2013-08-23 06:19:00,
2013-08-23 08:24:00,56.3,51.8,30.13,NE,40,2.3,2.3,85,0.00,BKN,,0.00,213.0,WeatherDisplay:10.37,2013-08-23 06:24:00,
2013-08-23 08:29:00,56.7,52.2,30.13,NE,40,1.2,1.2,85,0.00,SCT,,0.00,227.0,WeatherDisplay:10.37,2013-08-23 06:29:00,
2013-08-23 08:34:00,56.7,52.2,30.13,NE,40,2.3,2.3,85,0.00,BKN,,0.00,220.0,WeatherDisplay:10.37,2013-08-23 06:34:00,
2013-08-23 08:39:00,57.4,52.9,30.13,NE,40,2.3,2.3,85,0.00,BKN,,0.00,225.0,WeatherDisplay:10.37,2013-08-23 06:39:00,
2013-08-23 08:44:00,57.6,53.1,30.13,NE,40,1.2,1.2,85,0.00,BKN,,0.00,232.0,WeatherDisplay:10.37,2013-08-23 06:44:00,
2013-08-23 08:49:00,58.1,53.3,30.12,NE,40,2.3,2.3,84,0.00,BKN,,0.00,253.0,WeatherDisplay:10.37,2013-08-23 06:49:00,
2013-08-23 08:54:00,57.9,53.1,30.13,NE,40,1.2,1.2,84,0.00,SCT,,0.00,274.0,WeatherDisplay:10.37,2013-08-23 06:54:00,
2013-08-23 08:59:00,58.1,53.3,30.13,NE,40,2.3,0.0,84,0.00,BKN,,0.00,260.0,WeatherDisplay:10.37,2013-08-23 06:59:00,
2013-08-23 09:04:00,58.3,53.2,30.13,NE,40,2.3,0.0,83,0.00,BKN,,0.00,265.0,WeatherDisplay:10.37,2013-08-23 07:04:00,
2013-08-23 09:09:00,58.5,53.4,30.13,NE,40,3.0,3.0,83,0.00,BKN,,0.00,276.0,WeatherDisplay:10.37,2013-08-23 07:09:00,
2013-08-23 09:15:00,58.7,53.5,30.12,NE,40,3.5,3.5,83,0.00,BKN,,0.00,279.0,WeatherDisplay:10.37,2013-08-23 07:15:00,
2013-08-23 09:20:00,59.7,54.2,30.13,NE,40,2.0,2.0,82,0.00,BKN,,0.00,309.0,WeatherDisplay:10.37,2013-08-23 07:20:00,
2013-08-23 09:25:00,60.1,54.6,30.13,NE,40,2.3,2.3,82,0.00,SCT,,0.00,338.0,WeatherDisplay:10.37,2013-08-23 07:25:00,
2013-08-23 09:30:00,60.1,53.9,30.13,NE,40,3.5,3.5,80,0.00,SCT,,0.00,343.0,WeatherDisplay:10.37,2013-08-23 07:30:00,
2013-08-23 09:35:00,60.4,54.5,30.13,NE,40,2.3,2.3,81,0.00,BKN,,0.00,283.0,WeatherDisplay:10.37,2013-08-23 07:35:00,
2013-08-23 09:40:00,60.7,55.2,30.12,NE,40,3.5,3.5,82,0.00,BKN,,0.00,313.0,WeatherDisplay:10.37,2013-08-23 07:40:00,
2013-08-23 09:45:00,60.7,54.8,30.13,NE,40,3.5,3.5,81,0.00,BKN,,0.00,308.0,WeatherDisplay:10.37,2013-08-23 07:45:00,
2013-08-23 09:50:00,60.6,54.4,30.13,NE,40,3.5,3.5,80,0.00,BKN,,0.00,330.0,WeatherDisplay:10.37,2013-08-23 07:50:00,
2013-08-23 09:55:00,61.8,56.2,30.13,NE,40,2.3,2.3,82,0.00,SCT,,0.00,422.0,WeatherDisplay:10.37,2013-08-23 07:55:00,
2013-08-23 10:00:00,62.2,55.6,30.13,NE,40,4.0,4.0,79,0.00,SCT,,0.00,459.0,WeatherDisplay:10.37,2013-08-23 08:00:00,
2013-08-23 10:05:00,61.9,55.0,30.13,NE,40,3.5,3.5,78,0.00,SCT,,0.00,448.0,WeatherDisplay:10.37,2013-08-23 08:05:00,
2013-08-23 10:10:00,62.5,55.5,30.13,NE,40,3.5,3.5,78,0.00,SCT,,0.00,471.0,WeatherDisplay:10.37,2013-08-23 08:10:00,
2013-08-23 10:15:00,62.7,55.7,30.12,NE,40,4.0,4.0,78,0.00,SCT,,0.00,464.0,WeatherDisplay:10.37,2013-08-23 08:15:00,
2013-08-23 10:20:00,63.8,56.4,30.13,NE,40,3.5,3.5,77,0.00,SCT,,0.00,513.0,WeatherDisplay:10.37,2013-08-23 08:20:00,
2013-08-23 10:25:00,64.8,57.1,30.13,NE,40,2.3,2.3,76,0.00,SCT,,0.00,482.0,WeatherDisplay:10.37,2013-08-23 08:25:00,
2013-08-23 10:30:00,64.9,57.2,30.12,NE,40,3.5,3.5,76,0.00,FEW,,0.00,592.0,WeatherDisplay:10.37,2013-08-23 08:30:00,
2013-08-23 10:35:00,65.1,56.6,30.12,NE,40,3.5,3.5,74,0.00,SCT,,0.00,548.0,WeatherDisplay:10.37,2013-08-23 08:35:00,
2013-08-23 10:40:00,65.5,56.2,30.12,East,82,6.0,6.0,72,0.00,FEW,,0.00,589.0,WeatherDisplay:10.37,2013-08-23 08:40:00,
2013-08-23 10:45:00,65.2,55.9,30.12,East,88,8.1,8.1,72,0.00,SCT,,0.00,561.0,WeatherDisplay:10.37,2013-08-23 08:45:00,
2013-08-23 10:50:00,65.7,56.8,30.12,NE,51,8.1,8.1,73,0.00,SCT,,0.00,554.0,WeatherDisplay:10.37,2013-08-23 08:50:00,
2013-08-23 10:55:00,66.2,56.5,30.12,ENE,67,5.8,5.8,71,0.00,FEW,,0.00,610.0,WeatherDisplay:10.37,2013-08-23 08:55:00,
2013-08-23 11:00:00,67.3,58.0,30.12,NE,53,4.0,4.0,72,0.00,SCT,,0.00,589.0,WeatherDisplay:10.37,2013-08-23 09:00:00,
2013-08-23 11:05:00,67.6,57.9,30.12,ENE,58,5.8,5.8,71,0.00,SCT,,0.00,596.0,WeatherDisplay:10.37,2013-08-23 09:05:00,
2013-08-23 11:10:00,68.5,58.3,30.12,ENE,58,2.3,2.3,70,0.00,FEW,,0.00,666.0,WeatherDisplay:10.37,2013-08-23 09:10:00,
2013-08-23 11:15:00,69.5,58.5,30.12,NE,44,4.6,4.6,68,0.00,FEW,,0.00,666.0,WeatherDisplay:10.37,2013-08-23 09:15:00,
2013-08-23 11:20:00,68.4,56.6,30.12,ENE,59,6.0,6.0,66,0.00,SCT,,0.00,587.0,WeatherDisplay:10.37,2013-08-23 09:20:00,
2013-08-23 11:25:00,67.6,57.1,30.12,ENE,68,4.0,4.0,69,0.00,FEW,,0.00,691.0,WeatherDisplay:10.37,2013-08-23 09:25:00,
2013-08-23 11:30:00,68.1,57.1,30.11,ENE,58,3.5,3.5,68,0.00,SCT,,0.00,638.0,WeatherDisplay:10.37,2013-08-23 09:30:00,
2013-08-23 11:35:00,69.1,56.8,30.11,NE,43,9.0,9.0,65,0.00,FEW,,0.00,680.0,WeatherDisplay:10.37,2013-08-23 09:35:00,
2013-08-23 11:40:00,68.8,57.0,30.11,ENE,57,6.0,6.0,66,0.00,FEW,,0.00,649.0,WeatherDisplay:10.37,2013-08-23 09:40:00,
2013-08-23 11:45:00,68.9,57.5,30.11,ENE,57,9.2,9.2,67,0.00,SCT,,0.00,601.0,WeatherDisplay:10.37,2013-08-23 09:45:00,
2013-08-23 11:50:00,70.2,57.9,30.11,NE,49,5.0,5.0,65,0.00,SCT,,0.00,615.0,WeatherDisplay:10.37,2013-08-23 09:50:00,
2013-08-23 11:55:00,70.0,57.7,30.11,NE,52,6.9,6.9,65,0.00,SCT,,0.00,645.0,WeatherDisplay:10.37,2013-08-23 09:55:00,
2013-08-23 12:00:00,70.5,58.6,30.11,NE,46,5.0,5.0,66,0.00,SCT,,0.00,654.0,WeatherDisplay:10.37,2013-08-23 10:00:00,
2013-08-23 12:05:00,70.1,57.4,30.11,NE,44,7.0,7.0,64,0.00,SCT,,0.00,664.0,WeatherDisplay:10.37,2013-08-23 10:05:00,
2013-08-23 12:10:00,70.7,57.9,30.11,East,96,5.8,5.8,64,0.00,SCT,,0.00,656.0,WeatherDisplay:10.37,2013-08-23 10:10:00,
2013-08-23 12:15:00,69.9,55.8,30.11,ENE,75,7.0,7.0,61,0.00,OVC,,0.00,318.0,WeatherDisplay:10.37,2013-08-23 10:15:00,
2013-08-23 12:20:00,69.4,56.3,30.11,East,98,3.5,3.5,63,0.00,OVC,,0.00,214.0,WeatherDisplay:10.37,2013-08-23 10:20:00,
2013-08-23 12:25:00,69.5,56.8,30.10,NE,53,9.0,9.0,64,0.00,OVC,,0.00,253.0,WeatherDisplay:10.37,2013-08-23 10:25:00,
2013-08-23 12:30:00,69.3,55.7,30.11,East,84,9.0,9.0,62,0.00,FEW,,0.00,752.0,WeatherDisplay:10.37,2013-08-23 10:30:00,
2013-08-23 12:35:00,70.2,55.7,30.10,East,82,11.5,11.5,60,0.00,SCT,,0.00,661.0,WeatherDisplay:10.37,2013-08-23 10:35:00,
2013-08-23 12:40:00,69.7,55.6,30.10,NE,49,10.4,10.4,61,0.00,OVC,,0.00,264.0,WeatherDisplay:10.37,2013-08-23 10:40:00,
2013-08-23 12:45:00,69.6,54.6,30.10,East,82,6.9,6.9,59,0.00,SCT,,0.00,675.0,WeatherDisplay:10.37,2013-08-23 10:45:00,
2013-08-23 12:50:00,70.8,55.8,30.10,ESE,111,8.1,8.1,59,0.00,SCT,,0.00,601.0,WeatherDisplay:10.37,2013-08-23 10:50:00,
2013-08-23 12:55:00,71.3,55.8,30.10,NNE,19,9.0,9.0,58,0.00,SCT,,0.00,679.0,WeatherDisplay:10.37,2013-08-23 10:55:00,
2013-08-23 13:00:00,71.3,55.8,30.10,NE,43,8.1,8.1,58,0.00,FEW,,0.00,700.0,WeatherDisplay:10.37,2013-08-23 11:00:00,
2013-08-23 13:05:00,71.5,55.5,30.11,ENE,69,6.9,6.9,57,0.00,SCT,,0.00,647.0,WeatherDisplay:10.37,2013-08-23 11:05:00,
2013-08-23 13:10:00,70.9,55.9,30.10,NNE,24,10.0,10.0,59,0.00,BKN,,0.00,373.0,WeatherDisplay:10.37,2013-08-23 11:10:00,
2013-08-23 13:15:00,69.8,55.7,30.10,NE,53,9.2,9.2,61,0.00,OVC,,0.00,297.0,WeatherDisplay:10.37,2013-08-23 11:15:00,
2013-08-23 13:20:00,70.3,56.7,30.10,ENE,77,10.4,10.4,62,0.00,SCT,,0.00,591.0,WeatherDisplay:10.37,2013-08-23 11:20:00,
2013-08-23 13:25:00,69.9,55.8,30.10,NE,54,9.2,9.2,61,0.00,BKN,,0.00,360.0,WeatherDisplay:10.37,2013-08-23 11:25:00,
2013-08-23 13:30:00,69.9,55.4,30.10,ENE,59,8.1,8.1,60,0.00,SCT,,0.00,612.0,WeatherDisplay:10.37,2013-08-23 11:30:00,
2013-08-23 13:35:00,70.3,54.3,30.10,ENE,57,10.4,10.4,57,0.00,SCT,,0.00,617.0,WeatherDisplay:10.37,2013-08-23 11:35:00,
2013-08-23 13:40:00,70.7,55.7,30.10,ENE,63,8.1,8.1,59,0.00,SCT,,0.00,649.0,WeatherDisplay:10.37,2013-08-23 11:40:00,
2013-08-23 13:45:00,70.9,54.9,30.10,NE,46,10.4,10.4,57,0.00,BKN,,0.00,483.0,WeatherDisplay:10.37,2013-08-23 11:45:00,
2013-08-23 13:50:00,70.9,55.9,30.10,NE,36,9.2,9.2,59,0.00,SCT,,0.00,589.0,WeatherDisplay:10.37,2013-08-23 11:50:00,
2013-08-23 13:55:00,71.0,55.0,30.10,ENE,78,12.7,12.7,57,0.00,SCT,,0.00,657.0,WeatherDisplay:10.37,2013-08-23 11:55:00,
2013-08-23 14:00:00,71.3,55.3,30.10,NE,48,11.5,11.5,57,0.00,SCT,,0.00,649.0,WeatherDisplay:10.37,2013-08-23 12:00:00,
2013-08-23 14:05:00,70.9,54.4,30.10,ENE,61,8.1,8.1,56,0.00,SCT,,0.00,636.0,WeatherDisplay:10.37,2013-08-23 12:05:00,
2013-08-23 14:10:00,71.8,55.3,30.09,NE,54,10.4,10.4,56,0.00,SCT,,0.00,650.0,WeatherDisplay:10.37,2013-08-23 12:10:00,
2013-08-23 14:15:00,72.1,55.0,30.09,ESE,108,12.7,12.7,55,0.00,SCT,,0.00,629.0,WeatherDisplay:10.37,2013-08-23 12:15:00,
2013-08-23 14:20:00,71.9,55.3,30.09,NNE,13,9.2,9.2,56,0.00,SCT,,0.00,642.0,WeatherDisplay:10.37,2013-08-23 12:20:00,
2013-08-23 14:25:00,71.7,54.7,30.09,SE,126,9.2,9.2,55,0.00,SCT,,0.00,566.0,WeatherDisplay:10.37,2013-08-23 12:25:00,
2013-08-23 14:30:00,71.8,53.7,30.09,East,80,9.2,9.2,53,0.00,SCT,,0.00,606.0,WeatherDisplay:10.37,2013-08-23 12:30:00,
2013-08-23 14:35:00,72.4,54.8,30.09,ENE,69,11.5,11.5,54,0.00,SCT,,0.00,570.0,WeatherDisplay:10.37,2013-08-23 12:35:00,
2013-08-23 14:40:00,72.0,53.9,30.09,ENE,76,8.1,8.1,53,0.00,SCT,,0.00,496.0,WeatherDisplay:10.37,2013-08-23 12:40:00,
2013-08-23 14:45:00,71.8,53.2,30.09,East,80,10.4,10.4,52,0.00,SCT,,0.00,483.0,WeatherDisplay:10.37,2013-08-23 12:45:00,
2013-08-23 14:50:00,71.5,54.0,30.09,NE,46,9.2,9.2,54,0.00,BKN,,0.00,432.0,WeatherDisplay:10.37,2013-08-23 12:50:00,
2013-08-23 14:55:00,71.3,54.8,30.08,ENE,57,9.2,9.2,56,0.00,BKN,,0.00,424.0,WeatherDisplay:10.37,2013-08-23 12:55:00,
2013-08-23 15:00:00,71.4,53.9,30.08,NE,46,6.0,6.0,54,0.00,BKN,,0.00,432.0,WeatherDisplay:10.37,2013-08-23 13:00:00,
2013-08-23 15:05:00,71.7,53.1,30.08,East,80,11.5,11.5,52,0.00,BKN,,0.00,396.0,WeatherDisplay:10.37,2013-08-23 13:05:00,
2013-08-23 15:10:00,71.8,54.3,30.08,East,90,6.9,6.9,54,0.00,SCT,,0.00,455.0,WeatherDisplay:10.37,2013-08-23 13:10:00,
2013-08-23 15:15:00,72.2,53.6,30.08,ESE,110,9.2,9.2,52,0.00,SCT,,0.00,422.0,WeatherDisplay:10.37,2013-08-23 13:15:00,
2013-08-23 15:20:00,71.9,53.8,30.08,East,94,9.2,9.2,53,0.00,SCT,,0.00,462.0,WeatherDisplay:10.37,2013-08-23 13:20:00,
2013-08-23 15:25:00,72.0,53.9,30.08,East,94,8.1,8.1,53,0.00,SCT,,0.00,466.0,WeatherDisplay:10.37,2013-08-23 13:25:00,
2013-08-23 15:30:00,72.0,54.4,30.08,NE,40,9.2,9.2,54,0.00,SCT,,0.00,441.0,WeatherDisplay:10.37,2013-08-23 13:30:00,
2013-08-23 15:35:00,72.3,54.7,30.07,East,82,4.0,4.0,54,0.00,SCT,,0.00,473.0,WeatherDisplay:10.37,2013-08-23 13:35:00,
2013-08-23 15:40:00,72.5,54.4,30.07,East,95,8.0,8.0,53,0.00,SCT,,0.00,487.0,WeatherDisplay:10.37,2013-08-23 13:40:00,
2013-08-23 15:45:00,72.8,54.7,30.07,ENE,66,11.0,11.0,53,0.00,BKN,,0.00,397.0,WeatherDisplay:10.37,2013-08-23 13:45:00,
2013-08-23 15:50:00,72.5,53.9,30.07,ENE,71,10.4,10.4,52,0.00,BKN,,0.00,396.0,WeatherDisplay:10.37,2013-08-23 13:50:00,
2013-08-23 15:55:00,72.4,55.3,30.07,East,80,8.1,8.1,55,0.00,SCT,,0.00,408.0,WeatherDisplay:10.37,2013-08-23 13:55:00,
2013-08-23 16:00:00,72.3,53.2,30.07,NE,46,9.2,9.2,51,0.00,SCT,,0.00,450.0,WeatherDisplay:10.37,2013-08-23 14:00:00,
2013-08-23 16:05:00,72.9,55.8,30.07,ENE,57,7.0,7.0,55,0.00,SCT,,0.00,446.0,WeatherDisplay:10.37,2013-08-23 14:05:00,
2013-08-23 16:10:00,73.3,56.2,30.07,NE,55,12.0,12.0,55,0.00,SCT,,0.00,471.0,WeatherDisplay:10.37,2013-08-23 14:10:00,
2013-08-23 16:15:00,73.2,55.0,30.07,ENE,66,11.5,11.5,53,0.00,SCT,,0.00,415.0,WeatherDisplay:10.37,2013-08-23 14:15:00,
2013-08-23 16:20:00,73.0,55.9,30.06,NE,49,9.2,9.2,55,0.00,SCT,,0.00,392.0,WeatherDisplay:10.37,2013-08-23 14:20:00,
2013-08-23 16:25:00,73.1,55.5,30.06,ENE,58,11.5,11.5,54,0.00,SCT,,0.00,376.0,WeatherDisplay:10.37,2013-08-23 14:25:00,
2013-08-23 16:30:00,73.0,54.9,30.06,East,92,9.2,9.2,53,0.00,SCT,,0.00,387.0,WeatherDisplay:10.37,2013-08-23 14:30:00,
2013-08-23 16:35:00,72.9,54.8,30.06,East,101,9.0,9.0,53,0.00,SCT,,0.00,394.0,WeatherDisplay:10.37,2013-08-23 14:35:00,
2013-08-23 16:40:00,72.9,54.2,30.06,East,85,8.1,8.1,52,0.00,SCT,,0.00,345.0,WeatherDisplay:10.37,2013-08-23 14:40:00,
2013-08-23 16:45:00,72.7,54.6,30.06,East,88,10.4,10.4,53,0.00,BKN,,0.00,255.0,WeatherDisplay:10.37,2013-08-23 14:45:00,
2013-08-23 16:50:00,72.3,55.2,30.06,ENE,65,12.7,12.7,55,0.00,SCT,,0.00,272.0,WeatherDisplay:10.37,2013-08-23 14:50:00,
2013-08-23 16:55:00,72.2,54.6,30.06,ENE,70,10.4,10.4,54,0.00,BKN,,0.00,257.0,WeatherDisplay:10.37,2013-08-23 14:55:00,
2013-08-23 17:00:00,72.1,55.0,30.06,ENE,67,11.5,11.5,55,0.00,BKN,,0.00,272.0,WeatherDisplay:10.37,2013-08-23 15:00:00,
2013-08-23 17:05:00,72.2,55.1,30.06,East,87,10.4,10.4,55,0.00,SCT,,0.00,290.0,WeatherDisplay:10.37,2013-08-23 15:05:00,
2013-08-23 17:10:00,72.1,54.5,30.06,East,101,14.0,14.0,54,0.00,SCT,,0.00,295.0,WeatherDisplay:10.37,2013-08-23 15:10:00,
2013-08-23 17:15:00,72.1,54.5,30.06,ENE,74,10.4,10.4,54,0.00,SCT,,0.00,279.0,WeatherDisplay:10.37,2013-08-23 15:15:00,
2013-08-23 17:20:00,72.2,55.6,30.06,NE,53,10.4,10.4,56,0.00,BKN,,0.00,220.0,WeatherDisplay:10.37,2013-08-23 15:20:00,
2013-08-23 17:25:00,71.8,54.8,30.06,ENE,58,12.0,12.0,55,0.00,BKN,,0.00,185.0,WeatherDisplay:10.37,2013-08-23 15:25:00,
2013-08-23 17:30:00,71.4,54.4,30.06,NE,36,11.5,11.5,55,0.00,BKN,,0.00,165.0,WeatherDisplay:10.37,2013-08-23 15:30:00,
2013-08-23 17:35:00,71.2,55.2,30.06,NE,54,11.0,11.0,57,0.00,BKN,,0.00,171.0,WeatherDisplay:10.37,2013-08-23 15:35:00,
2013-08-23 17:40:00,71.2,55.2,30.06,ENE,65,10.4,10.4,57,0.00,BKN,,0.00,181.0,WeatherDisplay:10.37,2013-08-23 15:40:00,
2013-08-23 17:45:00,71.2,55.2,30.06,NE,53,5.8,5.8,57,0.00,BKN,,0.00,181.0,WeatherDisplay:10.37,2013-08-23 15:45:00,
2013-08-23 17:50:00,71.2,54.7,30.05,NE,52,13.0,13.0,56,0.00,BKN,,0.00,172.0,WeatherDisplay:10.37,2013-08-23 15:50:00,
2013-08-23 17:55:00,71.1,55.1,30.05,NE,44,10.4,10.4,57,0.00,BKN,,0.00,142.0,WeatherDisplay:10.37,2013-08-23 15:55:00,
2013-08-23 18:00:00,70.9,54.9,30.05,ENE,57,9.2,9.2,57,0.00,OVC,,0.00,132.0,WeatherDisplay:10.37,2013-08-23 16:00:00,
2013-08-23 18:05:00,70.7,54.7,30.05,NE,52,8.1,8.1,57,0.00,OVC,,0.00,114.0,WeatherDisplay:10.37,2013-08-23 16:05:00,
2013-08-23 18:10:00,70.4,54.9,30.05,NE,55,7.0,7.0,58,0.00,BKN,,0.00,125.0,WeatherDisplay:10.37,2013-08-23 16:10:00,
2013-08-23 18:15:00,70.3,54.3,30.05,NE,52,7.0,7.0,57,0.00,BKN,,0.00,118.0,WeatherDisplay:10.37,2013-08-23 16:15:00,
2013-08-23 18:20:00,70.1,55.1,30.05,NE,55,7.0,7.0,59,0.00,OVC,,0.00,109.0,WeatherDisplay:10.37,2013-08-23 16:20:00,
2013-08-23 18:25:00,70.0,55.0,30.05,ENE,69,6.9,6.9,59,0.00,OVC,,0.00,98.0,WeatherDisplay:10.37,2013-08-23 16:25:00,
2013-08-23 18:30:00,69.9,54.4,30.05,NE,40,9.2,9.2,58,0.00,OVC,,0.00,86.0,WeatherDisplay:10.37,2013-08-23 16:30:00,
2013-08-23 18:35:00,69.8,53.9,30.05,NE,42,9.2,9.2,57,0.00,OVC,,0.00,81.0,WeatherDisplay:10.37,2013-08-23 16:35:00,
2013-08-23 18:40:00,69.7,54.3,30.05,NE,54,5.0,5.0,58,0.00,OVC,,0.00,74.0,WeatherDisplay:10.37,2013-08-23 16:40:00,
2013-08-23 18:45:00,69.3,53.9,30.05,ENE,58,6.9,6.9,58,0.00,OVC,,0.00,69.0,WeatherDisplay:10.37,2013-08-23 16:45:00,
2013-08-23 18:50:00,69.1,53.7,30.05,NE,51,6.0,6.0,58,0.00,OVC,,0.00,62.0,WeatherDisplay:10.37,2013-08-23 16:50:00,
2013-08-23 18:55:00,68.8,53.9,30.05,NE,54,4.6,4.6,59,0.00,OVC,,0.00,56.0,WeatherDisplay:10.37,2013-08-23 16:55:00,
2013-08-23 19:00:00,68.5,54.1,30.05,NE,49,4.6,4.6,60,0.00,OVC,,0.00,51.0,WeatherDisplay:10.37,2013-08-23 17:00:00,
2013-08-23 19:05:00,68.2,54.2,30.05,NE,49,3.5,3.5,61,0.00,OVC,,0.00,44.0,WeatherDisplay:10.37,2013-08-23 17:05:00,
2013-08-23 19:10:00,67.8,54.7,30.05,NE,49,3.5,3.5,63,0.00,OVC,,0.00,40.0,WeatherDisplay:10.37,2013-08-23 17:10:00,
2013-08-23 19:15:00,67.3,55.5,30.05,NE,49,3.5,3.5,66,0.00,OVC,,0.00,35.0,WeatherDisplay:10.37,2013-08-23 17:15:00,
2013-08-23 19:20:00,66.8,55.9,30.05,NE,49,3.5,3.5,68,0.00,OVC,,0.00,30.0,WeatherDisplay:10.37,2013-08-23 17:20:00,
2013-08-23 19:25:00,66.5,54.8,30.05,NE,49,4.0,4.0,66,0.00,OVC,,0.00,26.0,WeatherDisplay:10.37,2013-08-23 17:25:00,
2013-08-23 19:30:00,66.4,55.5,30.05,NE,49,3.5,3.5,68,0.00,OVC,,0.00,25.0,WeatherDisplay:10.37,2013-08-23 17:30:00,
2013-08-23 19:35:00,66.1,56.0,30.05,NE,49,3.5,3.5,70,0.00,OVC,,0.00,19.0,WeatherDisplay:10.37,2013-08-23 17:35:00,
2013-08-23 19:40:00,65.7,56.0,30.05,NE,49,3.5,3.5,71,0.00,OVC,,0.00,16.0,WeatherDisplay:10.37,2013-08-23 17:40:00,
2013-08-23 19:45:00,65.2,55.6,30.05,NE,49,4.0,4.0,71,0.00,OVC,,0.00,12.0,WeatherDisplay:10.37,2013-08-23 17:45:00,
2013-08-23 19:50:00,64.9,55.7,30.05,NE,49,3.5,3.5,72,0.00,OVC,,0.00,9.0,WeatherDisplay:10.37,2013-08-23 17:50:00,
2013-08-23 19:55:00,64.8,55.6,30.05,NE,49,4.0,4.0,72,0.00,OVC,,0.00,5.0,WeatherDisplay:10.37,2013-08-23 17:55:00,
2013-08-23 20:00:00,64.9,54.9,30.05,NE,49,3.5,3.5,70,0.00,OVC,,0.00,0.0,WeatherDisplay:10.37,2013-08-23 18:00:00,
2013-08-23 20:05:00,64.7,55.1,30.05,NE,49,3.5,3.5,71,0.00,OVC,,0.00,0.0,WeatherDisplay:10.37,2013-08-23 18:05:00,
2013-08-23 20:10:00,64.6,54.6,30.05,NE,49,4.0,4.0,70,0.00,OVC,,0.00,0.0,WeatherDisplay:10.37,2013-08-23 18:10:00,
2013-08-23 20:15:00,64.1,55.3,30.05,NE,49,4.0,4.0,73,0.00,OVC,,0.00,0.0,WeatherDisplay:10.37,2013-08-23 18:15:00,
2013-08-23 20:20:00,63.8,55.0,30.05,NE,49,3.5,3.5,73,0.00,OVC,,0.00,0.0,WeatherDisplay:10.37,2013-08-23 18:20:00,
2013-08-23 20:25:00,63.2,55.1,30.05,NE,49,3.5,3.5,75,0.00,OVC,,0.00,0.0,WeatherDisplay:10.37,2013-08-23 18:25:00,
2013-08-23 20:30:00,62.9,55.2,30.05,NE,49,2.3,2.3,76,0.00,OVC,,0.00,0.0,WeatherDisplay:10.37,2013-08-23 18:30:00,
2013-08-23 20:35:00,62.5,55.5,30.05,NE,49,3.5,3.5,78,0.00,CLR,,0.00,0.0,WeatherDisplay:10.37,2013-08-23 18:35:00,
2013-08-23 20:40:00,62.1,55.2,30.06,NE,49,2.3,2.3,78,0.00,CLR,,0.00,0.0,WeatherDisplay:10.37,2013-08-23 18:40:00,
2013-08-23 20:45:00,62.1,54.8,30.06,NE,49,3.5,3.5,77,0.00,CLR,,0.00,0.0,WeatherDisplay:10.37,2013-08-23 18:45:00,
2013-08-23 20:50:00,62.2,54.9,30.06,NE,49,4.0,4.0,77,0.00,CLR,,0.00,0.0,WeatherDisplay:10.37,2013-08-23 18:50:00,
2013-08-23 20:55:00,62.2,54.9,30.06,NE,49,3.5,3.5,77,0.00,CLR,,0.00,0.0,WeatherDisplay:10.37,2013-08-23 18:55:00,
2013-08-23 21:00:00,62.1,54.8,30.06,NE,49,3.5,3.5,77,0.00,CLR,,0.00,0.0,WeatherDisplay:10.37,2013-08-23 19:00:00,
2013-08-23 21:05:00,61.9,55.0,30.06,NE,49,3.5,3.5,78,0.00,CLR,,0.00,0.0,WeatherDisplay:10.37,2013-08-23 19:05:00,
2013-08-23 21:10:00,61.9,55.0,30.06,NE,49,3.5,3.5,78,0.00,CLR,,0.00,0.0,WeatherDisplay:10.37,2013-08-23 19:10:00,
2013-08-23 21:15:00,61.9,55.0,30.07,NE,49,2.3,2.3,78,0.00,CLR,,0.00,0.0,WeatherDisplay:10.37,2013-08-23 19:15:00,
2013-08-23 21:20:00,61.7,54.8,30.07,NE,49,1.2,1.2,78,0.00,CLR,,0.00,0.0,WeatherDisplay:10.37,2013-08-23 19:20:00,
2013-08-23 21:25:00,61.4,54.8,30.07,NE,49,2.0,2.0,79,0.00,CLR,,0.00,0.0,WeatherDisplay:10.37,2013-08-23 19:25:00,
2013-08-23 21:30:00,61.2,55.0,30.07,NE,49,2.3,2.3,80,0.00,CLR,,0.00,0.0,WeatherDisplay:10.37,2013-08-23 19:30:00,
2013-08-23 21:35:00,61.3,55.1,30.07,NE,49,1.2,0.0,80,0.00,CLR,,0.00,0.0,WeatherDisplay:10.37,2013-08-23 19:35:00,
2013-08-23 21:40:00,61.2,55.0,30.07,NE,49,0.0,0.0,80,0.00,CLR,,0.00,0.0,WeatherDisplay:10.37,2013-08-23 19:40:00,
2013-08-23 21:45:00,61.1,55.2,30.07,NE,49,0.0,0.0,81,0.00,CLR,,0.00,0.0,WeatherDisplay:10.37,2013-08-23 19:45:00,
2013-08-23 21:50:00,60.8,54.9,30.07,NE,49,0.0,0.0,81,0.00,CLR,,0.00,0.0,WeatherDisplay:10.37,2013-08-23 19:50:00,
2013-08-23 21:55:00,60.8,54.9,30.07,NE,49,0.0,0.0,81,0.00,CLR,,0.00,0.0,WeatherDisplay:10.37,2013-08-23 19:55:00,
2013-08-23 22:00:00,60.8,54.9,30.08,NE,49,1.2,1.2,81,0.00,CLR,,0.00,0.0,WeatherDisplay:10.37,2013-08-23 20:00:00,
2013-08-23 22:05:00,60.7,54.8,30.08,NE,49,1.2,1.2,81,0.00,CLR,,0.00,0.0,WeatherDisplay:10.37,2013-08-23 20:05:00,
2013-08-23 22:10:00,60.6,54.7,30.08,NE,49,1.2,0.0,81,0.00,CLR,,0.00,0.0,WeatherDisplay:10.37,2013-08-23 20:10:00,
2013-08-23 22:15:00,60.5,54.6,30.08,NE,49,2.3,2.3,81,0.00,CLR,,0.00,0.0,WeatherDisplay:10.37,2013-08-23 20:15:00,
2013-08-23 22:20:00,60.3,54.8,30.08,NE,49,1.2,1.2,82,0.00,CLR,,0.00,0.0,WeatherDisplay:10.37,2013-08-23 20:20:00,
2013-08-23 22:25:00,60.8,54.6,30.08,NE,49,2.0,2.0,80,0.00,CLR,,0.00,0.0,WeatherDisplay:10.37,2013-08-23 20:25:00,
2013-08-23 22:30:00,60.5,54.6,30.08,NE,49,1.2,1.2,81,0.00,CLR,,0.00,0.0,WeatherDisplay:10.37,2013-08-23 20:30:00,
2013-08-23 22:35:00,59.9,54.4,30.07,NE,49,1.2,1.2,82,0.00,CLR,,0.00,0.0,WeatherDisplay:10.37,2013-08-23 20:35:00,
2013-08-23 22:40:00,59.3,53.8,30.08,NE,49,1.2,1.2,82,0.00,CLR,,0.00,0.0,WeatherDisplay:10.37,2013-08-23 20:40:00,
2013-08-23 22:45:00,59.1,53.6,30.07,NE,49,1.2,0.0,82,0.00,CLR,,0.00,0.0,WeatherDisplay:10.37,2013-08-23 20:45:00,
2013-08-23 22:50:00,59.2,53.7,30.07,NE,49,1.2,1.2,82,0.00,CLR,,0.00,0.0,WeatherDisplay:10.37,2013-08-23 20:50:00,
2013-08-23 22:55:00,59.2,53.7,30.07,NE,49,1.2,1.2,82,0.00,CLR,,0.00,0.0,WeatherDisplay:10.37,2013-08-23 20:55:00,
2013-08-23 23:00:00,59.2,54.0,30.08,NE,49,1.2,0.0,83,0.00,CLR,,0.00,0.0,WeatherDisplay:10.37,2013-08-23 21:00:00,
2013-08-23 23:05:00,59.2,54.0,30.08,NE,49,0.0,0.0,83,0.00,CLR,,0.00,0.0,WeatherDisplay:10.37,2013-08-23 21:05:00,
2013-08-23 23:10:00,58.9,53.7,30.08,NE,49,0.0,0.0,83,0.00,CLR,,0.00,0.0,WeatherDisplay:10.37,2013-08-23 21:10:00,
2013-08-23 23:15:00,58.6,53.8,30.08,NE,49,0.0,0.0,84,0.00,CLR,,0.00,0.0,WeatherDisplay:10.37,2013-08-23 21:15:00,
2013-08-23 23:20:00,58.4,53.6,30.08,NE,49,1.2,0.0,84,0.00,CLR,,0.00,0.0,WeatherDisplay:10.37,2013-08-23 21:20:00,
2013-08-23 23:25:00,58.5,53.7,30.08,NE,49,0.0,0.0,84,0.00,CLR,,0.00,0.0,WeatherDisplay:10.37,2013-08-23 21:25:00,
2013-08-23 23:30:00,58.6,53.8,30.07,NE,49,1.0,0.0,84,0.00,CLR,,0.00,0.0,WeatherDisplay:10.37,2013-08-23 21:30:00,
2013-08-23 23:35:00,58.6,53.8,30.07,NE,49,1.2,1.2,84,0.00,CLR,,0.00,0.0,WeatherDisplay:10.37,2013-08-23 21:35:00,
2013-08-23 23:40:00,58.8,54.0,30.08,NE,49,1.2,1.2,84,0.00,CLR,,0.00,0.0,WeatherDisplay:10.37,2013-08-23 21:40:00,
2013-08-23 23:45:00,58.7,53.9,30.08,NE,49,1.2,1.2,84,0.00,CLR,,0.00,0.0,WeatherDisplay:10.37,2013-08-23 21:45:00,
2013-08-23 23:50:00,58.6,53.8,30.08,NE,49,1.2,1.2,84,0.00,CLR,,0.00,0.0,WeatherDisplay:10.37,2013-08-23 21:50:00,
2013-08-23 23:55:00,58.7,53.9,30.08,NE,49,1.2,1.2,84,0.00,CLR,,0.00,0.0,WeatherDisplay:10.37,2013-08-23 21:55:00,
2013-08-23 23:56:00,58.5,53.7,30.07,NE,49,0.0,0.0,84,0.00,CLR,,0.00,0.0,WeatherDisplay:10.37,2013-08-23 21:56:00,
2013-08-23 23:57:00,58.5,53.7,30.07,NE,49,0.0,0.0,84,0.00,CLR,,0.00,0.0,WeatherDisplay:10.37,2013-08-23 21:57:00,